Retour au catalogue

ONEWEB-0416

ActifCommunicationsPO
NORAD 51625·PAYLOAD·🇬🇧 United Kingdom

Lancé Feb 10, 2022 depuis Guiana Space Centre

Loading…

Prochains Passages (prochaines 24 heures)

TLE

FraisSource: CelesTrak SupGP

Époque: Sep 15, 2026, 05:00 UTC

1 51625C 22012D   26258.20849954  .00002459  00000+0  70546-2 0  2581
2 51625  87.8892  18.3575 0001380 108.5659 291.5126 13.10364959    16

Suivez ONEWEB-0416 en temps réel avec AllMySat

Download on the App Store